Flag for Spain Weather past 2 weeks in Santander, Spain

Now
57 °F

Lots of rain. Partly cloudy.


Feels Like: 56 °F
Forecast: 64 / 72 °F
Wind: 7 mph from Southwest

Location: Santander / Parayas

Current Time: Jul 31, 2015 at 8:02:54 AM

Latest Report: Jul 31, 2015 at 7:30 AM


Visibility: 2 mi

Pressure: 29.89 "Hg

Humidity: 94%

Dew point: 55 °F

Location of SantanderLocation

Historic Weather in Santander — Graph

°F

Santander temperature yesterday

Maximum temperature yesterday: 70 °F (at 6:00 PM)
Minimum temperature yesterday: 63 °F (at 5:30 AM)
Average temperature yesterday: 65 °F

Past Weeks' High & Low Weather Summary

 TemperatureHumidityPressure
High82 °F (Jul 26, 1:30 PM)100% (Jul 22, 6:00 AM)30.18 "Hg (Jul 22, 6:00 AM)
Low57 °F (Jul 26, 5:30 AM)26% (Jul 26, 1:00 PM)29.86 "Hg (Jul 24, 6:00 AM)
Average70 °F77%30.03 "Hg
* Reported Jul 16 7:00 AM — Jul 31 7:00 AM, Santander, Weather by CustomWeather, © 2015

Note: Actual official high and low records may vary slightly from our data, if they occured in-between our weather recording intervals... More about our weather records

Advertising

Santander weather history for previous 24 hours

 ConditionsComfort  
Time TempWeatherWind HumidityBarometerVisibility
7:00 AM
Fri, Jul 31
59 °FRain. Partly cloudy.6 mph88%29.89 "Hg2 mi
6:30 AM61 °FThunderstorms. Partly cloudy.9 mph77%29.89 "Hg5 mi
5:30 AM61 °FPassing clouds.3 mph77%29.86 "HgN/A
11:00 PM
Thu, Jul 30
63 °FPassing clouds.3 mph73%30.01 "HgN/A
10:30 PM63 °FScattered clouds.2 mph73%30.01 "HgN/A
10:00 PM64 °FScattered clouds.5 mph68%30.01 "HgN/A
9:30 PM64 °FScattered clouds.7 mph68%30.01 "HgN/A
9:00 PM66 °FScattered clouds.6 mph64%30.01 "HgN/A
8:30 PM66 °FScattered clouds.7 mph64%30.01 "HgN/A
8:00 PM66 °FScattered clouds.7 mph68%30.01 "HgN/A
7:30 PM68 °FScattered clouds.8 mph64%30.01 "HgN/A
7:00 PM68 °FScattered clouds.9 mph60%30.01 "HgN/A
6:30 PM68 °FScattered clouds.8 mph60%30.01 "HgN/A
6:00 PM70 °FScattered clouds.6 mph57%30.01 "HgN/A
5:30 PM68 °FPartly sunny.7 mph60%30.04 "HgN/A
5:00 PM68 °FBroken clouds.9 mph60%30.04 "HgN/A
4:30 PM66 °FBroken clouds.9 mph64%30.04 "HgN/A
4:00 PM68 °FBroken clouds.8 mph60%30.04 "HgN/A
3:30 PM68 °FBroken clouds.6 mph60%30.04 "HgN/A
3:00 PM68 °FBroken clouds.5 mph56%30.07 "HgN/A
2:30 PM66 °FBroken clouds.7 mph64%30.07 "HgN/A
2:00 PM66 °FPartly sunny.7 mph64%30.07 "HgN/A
1:30 PM66 °FPartly sunny.7 mph64%30.07 "HgN/A
1:00 PM66 °FPartly sunny.8 mph64%30.07 "HgN/A
12:30 PM64 °FPartly sunny.3 mph73%30.07 "HgN/A
12:00 PM64 °FPartly sunny.1 mph73%30.07 "HgN/A
11:30 AM64 °FPartly sunny.No wind78%30.07 "HgN/A
11:00 AM64 °FPartly sunny.2 mph73%30.07 "HgN/A
10:30 AM64 °FPartly sunny.3 mph78%30.07 "HgN/A
10:00 AM64 °FPartly sunny.2 mph73%30.07 "HgN/A
9:30 AM64 °FPartly sunny.3 mph73%30.07 "HgN/A
9:00 AM63 °FPartly sunny.3 mph77%30.04 "HgN/A
8:30 AM63 °FPartly sunny.2 mph77%30.07 "HgN/A
8:00 AM63 °FPassing clouds.2 mph77%30.04 "HgN/A
Weather by CustomWeather, © 2015

See weather overviewHow to use our weather pages